weather.gov     
National Weather Service

Regional Weather Roundup
NWS Homepage
This page is being discontinued on March 12, 2014.
The same data is available at this site. Please update your bookmarks.
Thank you, and we apologize for the inconvenience.
Please send an email to SR-SRH.Webmaster@noaa.gov with any concerns.


Current Version
Previous Version:    01  02  03  04  05  06  07  08  09  10  11  12  13  14  15  16  17  18  19  20  21  22  23  24  25  26  27  28  29  30  
   31  32  33  34  35  36  37  38  39  40  41  42  43  44  45  46  47  48  49  50  51  52  53  
[Printable]
557
ASUS44 KJAN 301310
RWRMS

MISSISSIPPI HOURLY WEATHER ROUNDUP
NATIONAL WEATHER SERVICE JACKSON MS
700 AM CST FRI JAN 30 2015

NOTE: "FAIR: INDICATES FEW OR NO CLOUDS BELOW 12,000 FEET WITH NO
SIGNIFICANT WEATHER AND/OR OBSTRUCTIONS TO VISIBILITY.

MSZ001>002-007>008-010>013-018>021-025>028-034>036-301400-
NORTHWEST MISSISSIPPI

CITY           SKY/WX    TMP DP  RH WIND       PRES   REMARKS
CLARKSDALE     FAIR      34  30  86 N13       30.48R WCI  25
CLEVELAND      FAIR      34  32  93 N7        30.47R WCI  28
GREENWOOD      PTCLDY    35  30  82 N5        30.46R WCI  31
GREENVILLE     CLEAR     34  29  82 N8        30.47R WCI  27
GRENADA        FAIR      28  27  93 NW5       30.46R WCI  23
OLIVE BRANCH   PTCLDY    34  30  86 NE7       30.47R WCI  28
OXFORD         FAIR      27  25  93 CALM      30.46R
TUNICA         SUNNY     32  30  93 N8        30.49R WCI  25
$$

MSZ003>006-009-014>017-022>024-029>033-037>039-301400-
NORTHEAST MISSISSIPPI

CITY           SKY/WX    TMP DP  RH WIND       PRES   REMARKS
COLUMBUS AFB   CLEAR     34  27  75 NW5       30.42R WCI  30
CORINTH        PTSUNNY   37  27  65 N7        30.45R WCI  32
GOLDN TRIANGLE CLEAR     36  27  69 N7        30.41R WCI  30
STARKVILLE     FAIR      34  30  86 N3        30.42S
TUPELO         CLEAR     36  27  69 N7        30.44R WCI  30
$$

MSZ040-058-301400-
CENTRAL MISSISSIPPI

CITY           SKY/WX    TMP DP  RH WIND       PRES   REMARKS
JACKSON INTL   PTCLDY    39  30  70 N10       30.43R WCI  32
JACKSON HAWKNS CLEAR     38  30  73 N6        30.44R WCI  33
MERIDIAN KEY   CLEAR     38  29  70 N9        30.41R WCI  31
MERIDIAN NAS   PTCLDY    38  29  70 N8        30.41R WCI  32
RAYMOND        FAIR      36  32  87 MISG      30.45R
VICKSBURG      PTCLDY    37  30  75 N9        30.46R WCI  30
$$

MSZ059>079-301400-
SOUTH MISSISSIPPI

CITY           SKY/WX    TMP DP  RH WIND       PRES   REMARKS
BROOKHAVEN     FAIR      39  34  81 N7        30.42R WCI  34
HATTIESBURG    PTCLDY    44  35  70 N9        30.40R
MCCOMB         PTCLDY    42  32  67 N8        30.39R
NATCHEZ        PTCLDY    39  30  70 N9        30.42R WCI  33
PINE BELT      PTCLDY    41  32  70 N10       30.40R
$$

MSZ080>082-301400-
COASTAL MISSISSIPPI

CITY           SKY/WX    TMP DP  RH WIND       PRES   REMARKS
BAY ST LOUIS   CLEAR     46  36  66 N9        30.34
BILOXI         CLEAR     47  39  72 N10       30.33R
PASCAGOULA     CLEAR     45  37  73 N16       30.33R
GULFPORT       CLEAR     47  37  68 N12       30.33R
$$




U.S. Dept. of Commerce
NOAA National Weather Service
1325 East West Highway
Silver Spring, MD 20910
E-mail: w-nws.webmaster@noaa.gov
Page last modified: May 16, 2007
NATIONAL WEATHER SERVICE: for Safety, for Work, for Fun - FOR LIFE